Regional Weather Roundup
Issued by NWS

Home | Current Version | Previous Version | Graphics & Text | Print | Product List | Glossary On
Versions: 1 2 3 4 5 6 7 8 9 10 11 12 13 14 15 16 17 18 19 20 21 22 23 24 25 26 27 28 29 30 31 32 33 34 35 36 37 38 39 40 41 42 43 44 45 46 47 48 49 50
000
ASUS43 KDTX 261010
RWRMI
MICHIGAN HOURLY REGIONAL WEATHER ROUNDUP
NATIONAL WEATHER SERVICE DETROIT/PONTIAC MI
600 AM EDT MON JUN 26 2017

NOTE: "FAIR" INDICATES FEW OR NO CLOUDS BELOW 12,000 FEET WITH NO
SIGNIFICANT WEATHER AND/OR OBSTRUCTION TO VISIBILITY.

MIZ047>049-052>055-059>063-066>070-074>076-081>083-261100-
SOUTHEAST LOWER MICHIGAN

CITY           SKY/WX    TMP DP  RH WIND       PRES   REMARKS
ADRIAN         CLEAR     52  48  86 W3        30.06R
ALMA           MOCLDY    54  52  94 W8        30.02R
ANN ARBOR      CLEAR     45  45 100 SW5       30.03R
BAD AXE        CLOUDY    55  53  92 SW5       29.98R
CARO           CLOUDY    53  52  95 SW5       29.99R
DETROIT CITY   CLEAR     56  48  74 W6        30.02R
DETROIT        PTCLDY    55  48  77 W6        30.04R
FLINT          CLOUDY    54  50  86 W7        30.01S
GROSSE ILE     CLEAR     56  48  76 W5        30.02R
HILLSDALE      CLEAR     52  46  82 W3        30.06R
HOWELL         PTCLDY    53  49  85 W9        30.03R

CITY           SKY/WX    TMP DP  RH WIND       PRES   REMARKS
JACKSON        CLEAR     54  50  86 W7        30.05R
LAMBERTVILLE   CLOUDY    57  50  76 W6        30.04R
LANSING        PTCLDY    55  50  83 W8        30.04R
LAPEER         MOCLDY    54  49  84 W3        30.01R
MASON          CLEAR     54  51  92 W6        30.04R
MONROE         MOCLDY    54  49  84 W5        30.03R
MT. CLEMENS    CLEAR     54  49  83 SW6       30.00R
PONTIAC        PTCLDY    53  50  89 SW6       30.01R
PORT HOPE        N/A     57  54  89 CALM      29.95R
PORT HURON     CLEAR     50  48  93 CALM      30.00S
TRI CITIES     CLOUDY    56  54  93 W13       30.00R
MIDLAND        CLOUDY    55  52  89 SW7       29.99R
TROY           CLEAR     54  48  78 SW5       30.04R
SAGINAW HB     CLOUDY    55  50  82 SW9       29.99R
$$
MIZ043>046-050>051-056>058-064>065-071>073-077>080-261100-
SOUTHWEST LOWER MICHIGAN

CITY           SKY/WX    TMP DP  RH WIND       PRES   REMARKS
BATTLE CREEK   PTCLDY    53  52  96 SW5       30.06R
BENTON HARBOR  CLEAR     60  48  64 W9        30.07S
BIG RAPIDS     CLOUDY    53  49  87 W6        30.00R
COLDWATER      MOCLDY    54  51  90 W5        30.07R
FREMONT        FAIR      51  50  93 W6        30.02S
HOLLAND        CLEAR     58  50  75 W6        30.06R
GRAND RAPIDS   PTCLDY    54  53  97 W8        30.04R
IONIA          FAIR      52  50  94 SW6       30.03R
KALAMAZOO      CLEAR     56  51  84 W8        30.07R
LUDINGTON      PTCLDY    54  48  79 W9        30.01R
MARSHALL       PTCLDY    51  50  98 W3        30.05S
MOUNT PLEASANT MOCLDY    55  52  90 W7        29.99S
MUSKEGON       PTCLDY    58  48  69 W12       30.04R
SOUTH HAVEN    PTCLDY    60  51  72 NW8       30.07R
$$
MIZ016>042-261100-
NORTHERN LOWER MICHIGAN

CITY           SKY/WX    TMP DP  RH WIND       PRES   REMARKS
ALPENA         MOCLDY    54  54 100 CALM      29.95S
BEAVER ISLAND  CLOUDY    55  54  97 N5        29.93S
BELLAIRE       HVY RAIN  55  53  94 NW3       29.94R
CADILLAC       CLOUDY    53  51  95 W10       29.96S
CHARLEVOIX     HVY RAIN  55  55 100 SW5       29.96R
FRANKFORT      CLOUDY    55  49  80 W13G18    29.97R
GAYLORD        LGT RAIN  53  50  89 SW5       29.93F
GRAYLING       CLOUDY    54  52  93 SW7       29.95S
HARBOR SPRINGS DRIZZLE   54  54 100 S3        29.93R
HOUGHTON LAKE  CLOUDY    55  51  86 SW9       29.96S
MANISTEE       MOCLDY    53  49  86 W12       29.99R
OSCODA         MOCLDY    53  52  97 W7        29.95S
PELLSTON       RAIN      54  52  93 CALM      29.93S FOG
ROGERS CITY    CLOUDY    55  54  96 CALM      29.94S
TRAVERSE CITY  CLOUDY    57  54  89 SW8       29.93R
$$
MIZ007>008-015-261100-
EASTERN UPPER MICHIGAN

CITY           SKY/WX    TMP DP  RH WIND       PRES   REMARKS
KINROSS        CLOUDY    53  52  96 NE5       29.93S
MACKINAC ISLAN DRIZZLE   54  54 100 NE5       29.93S
NEWBERRY       LGT RAIN  48  47  97 NW5       29.94S
S. S. MARIE    CLOUDY    54  51  90 E6        29.93S
MUNISING         N/A     49  48  97 NW7       29.95S
$$
MIZ004>006-011>014-085-261100-
CENTRAL UPPER MICHIGAN

CITY           SKY/WX    TMP DP  RH WIND       PRES   REMARKS
MANISTIQUE     DRIZZLE   50  47  90 N9        29.93S
ESCANABA       CLOUDY    52  51  97 W5        29.95S
MENOMINEE      CLEAR     48  46  93 VRB3      30.00R
SAWYER-GWINN   RAIN      48  47  96 N7        29.96R
$$
MIZ001>003-009>011-084-261100-
WESTERN UPPER MICHIGAN

CITY           SKY/WX    TMP DP  RH WIND       PRES   REMARKS
IRON MOUNTAIN  CLOUDY    50  45  83 W7        29.96R
HOUGHTON       LGT RAIN  48  46  93 N10       29.96S
COPPER HARBOR    N/A     50  48  93 N7        29.97S
IRONWOOD       RAIN      46  45  96 NW9       30.05R
$$

ABBREVIATIONS USED IN REMARKS
   TC - TEMPERATURE IN CELSIUS
  WCI - WIND CHILL INDEX
   HX - HEAT INDEX
  VSB - VISIBILITY





USA.gov is the U.S. government's official web portal to all federal, state and local government web resources and services.